Location: Waco, TX
(31.5480°N, 97.1670°W)
Time: 05:50:07
(UTC-06:00)

ISS - Pass Details

Date: 19 November 2017
Orbit: 402 x 407 km, 51.6° (Epoch: 21 November)

Event Time Altitude Azimuth Distance (km) Brightness Sun altitude
Rises 21:56:24 0° 251° (WSW) 2,311 - -56.9°
Reaches altitude 10° 21:58:45 10° 267° (W) 1,454 - -57.4°
Maximum altitude 22:01:26 23° 322° (NW) 906 - -58.0°
Drops below altitude 10° 22:04:07 10° 18° (NNE) 1,457 - -58.5°
Sets 22:06:28 0° 33° (NNE) 2,317 - -59.0°
